Weather History for Holland, MI

Change the Weather History Date:

Wednesday, December 12, 2012

  Actual Average Record
Temperature  
Mean Temperature 40 °F 32 °F  
Max Temperature 45 °F 37 °F 62 °F (1949)
Min Temperature 35 °F 27 °F -2 °F (1958)
Degree Days  
Heating Degree Days 25 33  
Month to date heating degree days 284 374  
Since 1 July heating degree days 1525 1597  
Cooling Degree Days 0 0  
Month to date cooling degree days 0 0  
Year to date cooling degree days 1067 693  
Moisture  
Dew Point 27 °F    
Average Humidity 58    
Maximum Humidity 70    
Minimum Humidity 45    
Precipitation  
Precipitation T in 0.08 in 1.05 in (1967)
Month to date precipitation 0.93 1.13  
Year to date precipitation 31.77 35.29  
Sea Level Pressure  
Sea Level Pressure 30.24 in    
Wind  
Wind Speed 15 mph (SSW)    
Max Wind Speed 26 mph    
Max Gust Speed 32 mph    
Visibility 10 miles    
Events      
T = Trace of Precipitation, MM = Missing Value Source: NWS Daily Summary

Daily Weather History Graph

Daily Weather History Graph

Search for Another Location

Airport:

Trip Planner

Search our weather history database for the weather conditions in past years. The results will help you decide how hot, cold, wet, or windy it might be!

Date:

Astronomy

Dec. 12, 2012 Rise Set
Actual Time 8:05 AM EST 5:10 PM EST
Civil Twilight 7:33 AM EST 5:42 PM EST
Nautical Twilight 6:58 AM EST 6:18 PM EST
Astronomical Twilight 6:23 AM EST 6:52 PM EST
Moon 7:09 AM EST (12/12) 4:47 PM EST (12/12)
Length of Visible Light 10h 09m
Length of Day
9h 04m
Waning Crescent, 1% of the Moon is Illuminated
Dec 12
Waning Crescent
Dec 13
New
Dec 20
First Quarter
Dec 28
Full
Jan 4
Last Quarter

Hourly Weather History & Observations

Time (EST) Temp. Windchill Dew Point Humidity Pressure Visibility Wind Dir Wind Speed Gust Speed Precip Events Conditions
12:53 AM 37.9 °F 27.9 °F 27.0 °F 65% 30.12 in 10.0 mi SW 19.6 mph 24.2 mph 0.00 in   Overcast
1:32 AM 37.4 °F 27.2 °F 28.4 °F 70% 30.11 in 10.0 mi WSW 19.6 mph 27.6 mph N/A   Overcast
1:53 AM 39.0 °F 30.3 °F 28.0 °F 65% 30.14 in 10.0 mi WSW 16.1 mph 25.3 mph N/A   Overcast
2:00 AM 39.2 °F 29.8 °F 28.4 °F 65% 30.12 in 10.0 mi WSW 18.4 mph 25.3 mph N/A   Overcast
2:53 AM 39.0 °F 29.3 °F 27.0 °F 62% 30.16 in 10.0 mi West 19.6 mph 27.6 mph N/A   Overcast
3:53 AM 39.0 °F 30.6 °F 28.0 °F 65% 30.17 in 10.0 mi WSW 15.0 mph - N/A   Overcast
4:53 AM 37.9 °F 30.5 °F 28.0 °F 68% 30.18 in 10.0 mi WSW 11.5 mph - N/A   Mostly Cloudy
5:53 AM 39.0 °F 31.0 °F 28.9 °F 67% 30.19 in 10.0 mi WSW 13.8 mph 20.7 mph N/A   Overcast
6:02 AM 39.2 °F 31.2 °F 28.4 °F 65% 30.18 in 10.0 mi WSW 13.8 mph - N/A   Overcast
6:53 AM 39.0 °F 31.4 °F 28.0 °F 65% 30.21 in 10.0 mi West 12.7 mph - N/A   Overcast
7:29 AM 39.2 °F 33.0 °F 28.4 °F 65% 30.21 in 10.0 mi West 9.2 mph - N/A   Overcast
7:40 AM 39.2 °F 32.0 °F 28.4 °F 65% 30.21 in 10.0 mi WSW 11.5 mph - N/A   Overcast
8:04 AM 39.2 °F 31.2 °F 28.4 °F 65% 30.22 in 10.0 mi WSW 13.8 mph - N/A   Overcast
8:53 AM 37.0 °F 30.4 °F 27.0 °F 67% 30.26 in 10.0 mi South 9.2 mph - N/A   Mostly Cloudy
9:53 AM 39.0 °F 32.3 °F 30.0 °F 70% 30.28 in 10.0 mi South 10.4 mph - N/A   Overcast
10:53 AM 39.0 °F 31.4 °F 30.0 °F 70% 30.30 in 10.0 mi South 12.7 mph - N/A   Partly Cloudy
11:53 AM 42.1 °F 36.1 °F 30.9 °F 65% 30.30 in 10.0 mi South 10.4 mph - N/A   Scattered Clouds
12:53 PM 44.1 °F 35.7 °F 30.0 °F 58% 30.30 in 10.0 mi SW 20.7 mph 27.6 mph N/A   Clear
1:53 PM 45.0 °F 37.4 °F 28.0 °F 52% 30.29 in 10.0 mi SSW 18.4 mph 27.6 mph N/A   Clear
2:53 PM 45.0 °F 38.5 °F 26.1 °F 48% 30.28 in 10.0 mi SSW 13.8 mph 25.3 mph N/A   Clear
3:53 PM 44.1 °F 36.8 °F 24.1 °F 45% 30.28 in 10.0 mi SSW 16.1 mph - N/A   Clear
4:53 PM 41.0 °F 34.7 °F 25.0 °F 53% 30.28 in 10.0 mi South 10.4 mph - N/A   Clear
5:53 PM 39.0 °F 33.4 °F 24.1 °F 55% 30.30 in 10.0 mi South 8.1 mph - N/A   Clear
6:53 PM 35.1 °F 30.1 °F 24.1 °F 64% 30.30 in 10.0 mi SSE 5.8 mph - N/A   Clear
7:53 PM 37.0 °F 29.3 °F 25.0 °F 62% 30.31 in 10.0 mi South 11.5 mph - N/A   Clear
8:53 PM 37.0 °F 29.8 °F 25.0 °F 62% 30.32 in 10.0 mi South 10.4 mph - N/A   Clear
9:53 PM 36.0 °F 28.0 °F 25.0 °F 64% 30.31 in 10.0 mi South 11.5 mph - N/A   Clear
10:53 PM 36.0 °F 28.0 °F 25.0 °F 64% 30.31 in 10.0 mi South 11.5 mph - N/A   Clear
11:53 PM 35.1 °F 27.9 °F 25.0 °F 67% 30.31 in 10.0 mi South 9.2 mph - N/A   Clear